www.pogodaiklimat.ru

Погода и климат >> Архив погоды >> Австралия >> Северная территория >> Джаберу


ПОГОДА в Джаберу

  • Прогноз погоды в Джаберу
  • Монитор погоды в Джаберу

АРХИВ ПОГОДЫ в Джаберу

Время (UTC), дата Ветер
(напр.,м/с)
 
Видим.   Явления Облачность Т
(С)
Тd
(С)
f
(%)
Тe
(С)
Тes
(С)
Комфортность P
(гПа)
Po
(гПа)
Тmin
(С)
Tmax
(С)
R
(мм)
R24
(мм)
S
(см)
08 11.02 СЗ 4 н/о 3/3 1000 м
[]
+34.5 +22.6 50 +44 +44 опасность
перегрева
1006.8 1003.7
11 11.02 С 3 н/о 9/9 1000 м
[]
+29.8 +24.4 73 +42 +42 опасность
перегрева
1009.3 1006.1
14 11.02 С 3 н/о 1/1 1500 м
[]
+28.4 +25.6 85 +42 +42 опасность
перегрева
1011.1 1007.9 +35.3
17 11.02 СЗ 3 н/о 6/6 1500 м
[]
+28.1 +25.5 86 +41 +41 опасность
перегрева
1009.8 1006.6
20 11.02 штиль 0 н/о н/о +27.0 +24.8 88 +39 +39 очень
душно
1010.1 1006.9
23 11.02 З 4 н/о 6/6 300 м
[]
+28.8 +24.8 79 +41 +41 опасность
перегрева
1012.2 1009.0 0.2
02 12.02 З 5 н/о 10/10 600 м
[]
+32.3 +23.8 61 +44 +44 опасность
перегрева
1011.7 1008.5 +26.3
05 12.02 С 6 н/о 4/4 600 м
[]
+31.1 +23.7 65 +42 +42 опасность
перегрева
1009.3 1006.1
08 12.02 СЗ 5 н/о в посл. час дождь {туман} 9/0
[]
+31.4 +24.5 67 +44 +44 опасность
перегрева
1007.8 1004.7
11 12.02 СЗ 3 н/о {туман} н/о +27.8 +24.2 81 +39 +39 очень
душно
1009.8 1006.6 7
14 12.02 штиль 0 н/о 5/5 1500 м
[]
+27.5 +25.5 89 +40 +40 очень
душно
1011.0 1007.8 +35.0
17 12.02 штиль 0 н/о 3/3 300 м
[]
+27.1 +24.9 88 +39 +39 очень
душно
1010.7 1007.5
20 12.02 ЮВ 2 н/о 4/4 1500 м
[]
+26.6 +25.4 93 +39 +39 очень
душно
1011.3 1008.1
23 12.02 З 3 н/о 1/1 300 м
[]
+28.3 +25.3 84 +41 +41 опасность
перегрева
1012.2 1009.0 7
02 13.02 З 6 н/о 10/10 600 м
[]
+32.1 +24.2 63 +44 +44 опасность
перегрева
1011.5 1008.3 +26.4
05 13.02 З 4 н/о 1/1 1000 м
[]
+34.1 +24.7 58 +47 +47 опасность
перегрева
1009.1 1005.9
08 13.02 З 3 н/о 10/0
[]
+34.0 +24.0 56 +46 +46 опасность
перегрева
1007.4 1004.3
11 13.02 СЗ 2 н/о 10/10 1000 м
[]
+28.8 +23.7 74 +39 +39 очень
душно
1009.7 1006.5
14 13.02 ЮЗ 2 н/о 1/0
[]
+27.2 +23.4 80 +37 +37 очень
душно
1011.1 1007.9 +36.2
17 13.02 штиль 0 н/о 10/10 300 м
[]
+26.5 +24.2 87 +37 +37 очень
душно
1009.5 1006.3
20 13.02 С 1 н/о 10/0
[]
+26.4 +24.8 91 +38 +38 очень
душно
1009.3 1006.1
23 13.02 штиль 0 н/о 10/10 300 м
[]
+28.3 +25.5 85 +42 +42 опасность
перегрева
1011.4 1008.2
02 14.02 З 4 н/о 10/10 600 м
[]
+32.0 +24.1 63 +44 +44 опасность
перегрева
1011.1 1007.9 +26.3
05 14.02 ЮЗ 4 н/о 3/3 1500 м
[]
+34.8 +23.8 53 +46 +46 опасность
перегрева
1008.4 1005.2
08 14.02 З 3 н/о 4/0
[]
+36.2 +21.6 43 +44 +44 опасность
перегрева
1006.9 1003.8
11 14.02 В 10 н/о слаб. ливневой дождь со снегом {туман} 8/8 600 м
[]
+27.2 +21.2 70 +34 +34 очень
душно
1010.0 1006.8 2
14 14.02 Ю 2 н/о в посл. час дождь со снегом 9/0
[]
+25.6 +22.9 85 +34 +34 очень
душно
1013.0 1009.8 +36.7
17 14.02 штиль 0 н/о 4/0
[]
+25.5 +23.7 90 +35 +35 очень
душно
1009.9 1006.7
20 14.02 ЮВ 2 н/о 10/0
[]
+25.1 +23.9 93 +34 +34 очень
душно
1009.7 1006.5
23 14.02 штиль 0 н/о 4/0
[]
+27.7 +24.1 81 +39 +39 очень
душно
1012.0 1008.8 2
02 15.02 С 4 н/о {туман} 3/3 600 м
[]
+32.3 +24.3 63 +45 +45 опасность
перегрева
1012.2 1009.0 +24.9
05 15.02 С 3 н/о {туман} 4/4 1000 м
[]
+35.2 +24.2 53 +47 +47 опасность
перегрева
1009.4 1006.2 0.2
08 15.02 Ю 4 н/о в посл. час дождь со снегом {туман} 9/0
[]
+24.8 +22.7 88 +33 +33 очень
душно
1009.3 1006.1
11 15.02 ЮВ 1 н/о в посл. час дождь со снегом {туман} 10/0
[]
+26.2 +23.9 87 +36 +36 очень
душно
1011.0 1007.8 6
14 15.02 ЮВ 3 н/о {туман} 8/0
[]
+25.1 +22.8 87 +33 +33 очень
душно
1013.2 1010.0 +36.0
17 15.02 штиль 0 н/о {туман} 9/0
[]
+25.0 +23.4 91 +34 +34 очень
душно
1011.4 1008.2 0.4
20 15.02 Ю 1 н/о 4/0
[]
+24.9 +23.7 93 +34 +34 очень
душно
1011.3 1008.1
23 15.02 В 3 н/о н/о +28.4 +24.8 81 +41 +41 опасность
перегрева
1012.6 1009.4 7
02 16.02 ЮЗ 3 н/о 1/1 600 м
[]
+32.2 +25.0 66 +46 +46 опасность
перегрева
1012.2 1009.0 +23.7
05 16.02 СЗ 3 н/о 1/1 1000 м
[]
+34.6 +22.3 49 +44 +44 опасность
перегрева
1009.0 1005.8
08 16.02 С 8 н/о 3/3 1500 м
[]
+29.5 +21.4 62 +37 +37 очень
душно
1007.7 1004.6
11 16.02 З 3 н/о 9/9 1000 м
[]
+29.6 +23.8 71 +41 +41 опасность
перегрева
1010.7 1007.5
14 16.02 штиль 0 н/о сильн. ливневой дождь {туман} 10/0
[]
+25.3 +23.4 89 +34 +34 очень
душно
1012.2 1009.0 +36.4
17 16.02 СВ 2 н/о {туман} 6/0
[]
+25.2 +24.0 93 +35 +35 очень
душно
1008.8 1005.6 5
20 16.02 З 1 н/о {туман} 4/4 300 м
[]
+25.1 +24.1 94 +35 +35 очень
душно
1009.8 1006.6
23 16.02 З 2 н/о {туман} н/о +27.0 +23.7 82 +37 +37 очень
душно
1012.3 1009.1 6
02 17.02 СЗ 2 н/о 3/0
[]
+31.5 +24.4 66 +44 +44 опасность
перегрева
1011.6 1008.4 +24.6
05 17.02 С 3 н/о 1/1 1500 м
[]
+34.1 +21.2 47 +42 +42 опасность
перегрева
1008.8 1005.6
08 17.02 СЗ 3 н/о 3/3 1500 м
[]
+34.9 +22.6 49 +44 +44 опасность
перегрева
1006.5 1003.4
11 17.02 С 9 7000 м слаб. ливневой дождь со снегом {туман} 10/10 1000 м
[]
+22.8 +21.6 93 +30 +30 очень
душно
1010.1 1006.9 34
14 17.02 ЮВ 2 н/о слаб. дождь {туман} 9/0 2000 м
[]
+24.3 +23.3 94 +33 +33 очень
душно
1011.2 1008.0 +35.5
17 17.02 В 2 н/о {туман} 10/0
[]
+24.6 +23.6 94 +33 +33 очень
душно
1009.2 1006.0 1
20 17.02 З 2 н/о 3/0
[]
+24.8 +23.9 95 +34 +34 очень
душно
1009.5 1006.3
23 17.02 штиль 0 н/о н/о +26.9 +24.0 84 +37 +37 очень
душно
1011.2 1008.0 35
02 18.02 ЮЗ 3 н/о н/о +32.0 +22.7 58 +42 +42 опасность
перегрева
1010.9 1007.7 +22.5
05 18.02 З 4 н/о н/о +34.4 +21.8 48 +43 +43 опасность
перегрева
1008.6 1005.4

 

Местоположение метеостанции Джаберу (Северная территория, Австралия): широта -12.67 долгота 132.90 высота над уровнем моря 28 м.

В архиве по умолчанию представлена погода в Джаберу за последнюю неделю. Архивные данные за месяц целиком и за предыдущие месяцы, начиная с января 2011 года, Вы можете получить, выбрав интересующий диапазон дат из раскрывающегося списка и нажав кнопку "Ввод!".


*Определитесь, кто Вы:
робот инопланетянин человек

Внимание! Время в таблицах - всемирное. Для получения местного времени необходимо прибавить поправку, которая равна 9.5 ч.

Смотрите также архив погоды в соседних городах и на ближайших метеорологических станциях:

Погода на Центральном плато Арнем (Северная территория, Австралия) (76 км)
Погода в Пойнт Стьюарт (Северная территория, Австралия) (121 км)
Погода в Уорруви (Северная территория, Австралия) (125 км)
Погода в Манингриде (Северная территория, Австралия) (160 км)
Погода в Милд Пойнт (Северная территория, Австралия) (174 км)
Погода на Острове Маклер (Северная территория, Австралия) (180 км)
Погода в Булман Уимол (Северная территория, Австралия) (191 км)
Погода в Кейп-Доне (Северная территория, Австралия) (194 км)
Погода в Батчелоре (Северная территория, Австралия) (208 км)
Погода в Тиндале (Северная территория, Австралия) (213 км)

Пояснения к столбцам:

Ветер - указаны скорость ветра в м/с - средняя за 10 мин, порывы в срок и между сроками (в фигурных скобках) и направление, откуда дует ветер: С - северный, СВ - северо-восточный, В - восточный, ЮВ - юго-восточный, Ю - южный, ЮЗ - юго-западный, З - западный, СЗ - северо-западный.
Видимость - горизонтальная дальность видимости в метрах или километрах. При видимости от 1 до 10 км при отсутствии осадков обычно наблюдается дымка, при ухудшении видимости до 1 км и менее - туман. В сухую погоду видимость может ухудшаться дымом, пылью или мглою.
Явления - указаны атмосферные явления, наблюдавшиеся в срок или в последний час перед сроком; фигурными скобками обозначены явления, наблюдавшиеся между сроками (за 1-3 часа до срока); квадратными скобками обозначены град или гололедные отложения с указанием их диаметра в мм.
Облачность - указаны через наклонную черту общая и нижняя облачность в баллах и высота нижней границы облаков в метрах; квадратными скобками обозначены формы облаков: Ci - перистые, Cs - перисто-слоистые, Cc - перисто-кучевые, Ac - высококучевые, As - высокослоистые, Sc - слоисто-кучевые, Ns - слоисто-дождевые, Cu - кучевые, Cb - кучево-дождевые. Подробнее классификацию облаков см. в Атласе облаков (PDF).
T - Температура воздуха - температура, измеренная на высоте 2 м над землей.
Td - Температура точки росы - температура, при понижении до которой содержащийся в воздухе водяной пар достигнет насыщения.
f - Относительная влажность воздуха - влажноcть воздуха, измеренная на высоте 2 м над землей.
Te - Эффективная температура - температура, которую ощущает одетый по сезону человек в тени. Характеристика душности погоды. При расчете учитывается влияние влажности воздуха и скорости ветра на теплоощущения человека.
Tes - Эффективная температура на солнце - температура, которую ощущает человек, с поправкой на солнечный нагрев. Характеристика знойности погоды. Зависит от высоты солнца над горизонтом, облачности и скорости ветра. Ночью, в пасмурную погоду, а также при ветре 12 м/с и более поправка равна нулю.
P - Атмосферное давление - приведенное к уровню моря атмосферное давление.
Po - Атмосферное давление - измеренное на уровне метеостанции атмосферное давление.
Tmin - Минимальная температура - минимум температуры воздуха на высоте 2 м над землей.
Tmax - Максимальная температура - максимум температуры воздуха на высоте 2 м над землей.
R - Количество осадков - Количество выпавших осадков за период времени, мм. При наведении курсора мыши на число - период времени, за который выпало указанное количество осадков.
R24 - Количество осадков - Количество выпавших осадков за 24 часа, мм.
S - Снежный покров - Высота снежного покрова, см. При наведении курсора мыши на число - состояние снежного покрова и степень покрытия местности в баллах.